1,427,578개(464/71379페이지)
LECTURE
번호 제목 글쓴이 조회 날짜
1418318 Are demon eye fronts lights legal? 사진 LawrenceMcKnight6091 4 2022.04.27 01:44
1418317 Are demon eye fronts lights legal? 사진 LawrenceMcKnight6091 4 2022.04.27 01:44
1418316 Teknik Hindarkan Rugi Taruhan Judi Onlin DohnLindhardt0671 1 2022.04.27 01:44
1418315 Six Shortcuts For Neon Sign That Gets Yo KofoedKeegan1952 3 2022.04.27 01:44
1418314 Find Out How To Make Neon Sign HyllestedEwing9284 1 2022.04.27 01:44
1418313 Permainan Di Tempat Gambling Permainan P DreyerShore5110 3 2022.04.27 01:44
1418312 Breakfast Menu Choices For An Event Or E HayBreen7015 3 2022.04.27 01:44
1418311 Eight Greatest Natural Home Cleansing Pr BarbeeOddershede7614 1 2022.04.27 01:44
1418310 6 Common Risks For Consulting Firms JoensenGonzales6491 4 2022.04.27 01:44
1418309 Identities Of The Noodle MarcherFisker4825 1 2022.04.27 01:43
1418308 Język Polski Klasa 6 - Szkoła Podstawowa 사진 KesslerBager3145 2 2022.04.27 01:43
1418307 آموزشگاه پیرایش و آرایشگری مردانه منافی MollerupHaas0152 3 2022.04.27 01:43
1418306 Contribution Margin CastanedaWhite8296 2 2022.04.27 01:43
1418305 Typically the War on Applied Games ButcherSweeney2637 2 2022.04.27 01:43
1418304 What Makes A Poker Player Good? GreenbergBanke1819 2 2022.04.27 01:43
1418303 Believing These 5 Myths About Mink Lash ChristieOneill6032 3 2022.04.27 01:43
1418302 Groupm Makes Advertising Work Better For 사진 WilkersonDowling2676 0 2022.04.27 01:43
1418301 Meluap KELEBIHAN Bila Kalian Selaku Juru MaloneyFoged4652 6 2022.04.27 01:43
1418300 Celebration Meals Ideas For Feeding A Cr AlmeidaBell3701 0 2022.04.27 01:43
1418299 Jai, một nhân vật kết hợp Vũ trụ Nạp thẻ NicholsEngberg1582 2 2022.04.27 01:43